Temp
8 8 8 7 7 8 7 7 7 7 7 7 7 6 6 6 6 6 7 7 7 7 7 7 7 7 7 7 7 7 7 7 7 7 7 8 8 7 7 7 6 6 7 7 7 7 7 7 8 7 8 9 9 10 10 9 9 9 9 10 10 10 10 11 10 10 9 9 9 9 8 8 7 7 7 7 6 6 5 5 5 6 6 6 6
8 8 7 7 7 7 7 7 7 6 7 7 6 6 6 6 6 6 6 6 6 6 6 7 7 7 7 7 7 7 6 6 6 7 7 8 8 7 6 6 6 6 6 7 7 7 7 7 7 7 8 9 9 10 10 9 9 9 9 10 9 9 10 10 10 10 9 9 9 8 8 8 8 7 7 7 7 6 6 6 6 6 6 6 6
8 8 7 7 7 7 7 7 7 6 6 6 5 5 6 6 6 6 6 6 6 6 6 6 6 7 7 6 6 6 6 6 6 7 8 7 7 7 6 6 5 5 6 6 7 7 7 7 7 7 8 9 9 9 10 9 9 9 9 10 9 10 10 10 10 10 9 9 9 8 8 8 8 8 7 7 7 7 6 7 7 6 7 6 6
8 8 7 7 7 7 7 7 6 6 6 6 5 5 5 5 5 5 5 5 5 5 6 6 6 6 6 6 6 5 5 6 6 7 8 7 7 6 6 6 5 5 6 6 6 6 6 6 7 7 8 9 9 9 9 9 8 9 9 9 9 10 10 10 10 10 9 9 9 9 9 8 8 8 8 7 7 7 7 7 7 7 7 7 7
8 7 7 7 7 7 6 6 6 6 6 5 5 5 5 5 5 5 5 5 5 5 5 5 6 6 6 5 5 5 5 6 6 7 7 7 6 6 6 6 5 5 6 6 5 6 6 6 7 7 8 8 8 8 9 9 8 9 9 8 9 9 10 10 10 9 9 9 9 9 9 9 9 8 8 8 8 7 8 8 8 7 7 7 7
7 7 7 7 7 6 6 6 6 6 5 5 5 5 4 4 4 4 4 4 4 4 5 5 5 5 5 5 5 4 5 6 6 7 7 6 6 6 6 5 5 5 6 5 5 5 6 6 7 7 8 8 8 8 8 8 8 8 9 8 9 9 9 10 10 10 9 9 9 9 9 9 9 9 8 8 8 8 8 8 8 8 8 8 8
7 7 7 7 6 6 6 6 5 5 5 5 5 4 4 4 4 4 4 4 4 4 5 5 5 5 5 5 4 4 4 5 6 6 6 6 6 6 5 5 5 5 5 5 5 6 6 6 7 7 8 8 8 8 8 8 8 8 8 9 9 9 9 10 10 10 9 9 9 9 9 9 9 9 8 8 8 8 8 9 8 8 8 8 8
7 7 7 6 6 6 6 5 5 5 5 4 4 4 3 3 3 3 3 4 4 4 4 5 5 5 4 4 4 4 3 4 4 5 5 6 6 5 5 5 5 5 5 5 6 6 6 6 7 7 7 7 8 8 8 8 8 8 9 9 9 9 9 9 9 9 9 9 9 9 9 9 9 9 9 9 8 9 9 9 9 8 8 8 8
7 7 7 6 6 6 5 5 5 5 4 4 4 3 3 3 3 3 3 3 4 4 4 4 4 4 4 3 3 3 3 2 3 4 5 6 6 6 5 5 5 5 5 6 6 6 6 6 7 7 7 7 7 8 8 8 8 8 8 9 9 9 9 9 9 9 9 9 9 9 9 9 9 9 9 9 9 9 9 9 9 9 9 8 8
7 7 6 6 6 5 5 5 5 4 4 4 3 3 3 2 2 2 3 3 4 4 4 4 4 4 4 3 3 3 3 2 2 4 5 6 6 6 5 5 5 5 5 5 5 6 6 6 7 7 7 7 7 7 7 8 8 9 8 9 9 9 9 9 9 9 9 10 10 10 10 10 10 9 9 9 9 9 9 9 9 9 9 8 8
7 6 6 6 5 5 5 5 4 4 4 3 3 2 2 2 2 2 2 3 3 4 4 4 3 3 3 3 3 3 2 2 3 4 5 6 6 6 5 5 4 5 5 5 5 6 6 6 7 7 7 7 7 7 7 8 8 9 9 9 9 9 9 9 9 9 9 10 10 10 10 10 10 10 9 9 9 9 9 9 9 9 9 8 8
6 6 6 5 5 5 5 4 4 4 3 3 3 2 2 1 2 2 2 3 3 3 3 3 3 3 3 2 2 3 2 2 3 4 5 5 6 6 5 4 4 4 5 5 5 6 6 6 7 7 6 6 7 7 7 7 8 9 9 9 9 9 9 9 9 9 10 10 11 11 10 10 10 10 9 9 9 9 9 9 9 9 9 8 8
6 6 5 5 5 5 4 4 4 3 3 3 2 2 1 1 1 2 2 2 3 3 3 3 3 3 3 2 2 2 2 2 3 4 4 5 6 6 5 4 4 4 5 5 5 6 6 6 7 7 6 6 7 7 7 7 8 8 9 9 9 9 9 9 9 9 10 11 11 11 10 10 10 10 9 9 9 9 9 8 9 9 8 8 8
6 6 5 5 5 4 4 4 3 3 3 3 2 2 1 1 1 1 2 2 2 3 3 3 3 2 2 2 2 2 2 2 3 4 4 5 6 6 5 5 5 4 4 5 5 6 6 6 6 6 6 6 7 7 7 7 8 8 8 9 9 9 9 9 9 10 10 10 10 10 10 10 10 10 9 9 9 9 8 8 9 9 8 8 8
6 5 5 4 4 4 4 3 3 3 3 3 2 2 2 1 1 1 1 2 2 2 2 2 2 2 2 2 2 2 2 2 3 4 5 5 6 6 6 5 5 4 4 5 5 6 6 6 6 6 6 6 7 7 7 7 8 8 8 8 9 9 9 9 9 9 10 10 10 10 10 10 10 9 9 9 9 9 8 8 9 9 8 8 8
6 5 5 4 4 4 3 3 3 3 3 3 2 2 2 1 1 1 2 2 2 2 2 2 2 2 2 1 1 1 1 2 3 4 5 5 5 6 6 5 5 4 4 4 5 5 6 6 6 6 6 6 7 7 7 7 8 8 8 8 8 9 9 9 9 9 9 9 9 9 9 9 9 9 9 9 9 8 8 8 9 9 8 8 8
6 5 5 4 4 3 3 3 3 3 3 3 2 2 2 1 1 1 2 2 1 1 1 2 2 1 1 1 0 0 0 1 2 3 4 5 5 5 5 5 4 4 4 4 4 5 5 6 6 6 6 6 7 7 7 7 8 8 8 8 8 8 9 9 9 9 9 9 9 9 9 9 9 9 9 9 9 8 8 9 9 9 9 9 9
6 6 5 4 4 3 3 3 3 3 3 3 2 2 2 1 1 1 2 2 1 1 1 1 1 1 0 0 -0 -0 0 1 2 2 4 4 4 4 4 4 4 4 4 4 4 5 5 6 6 6 6 6 7 7 7 7 8 8 8 8 8 8 8 8 9 9 9 9 9 9 9 9 9 9 8 8 9 9 9 9 9 8 9 9 9
6 5 4 4 4 3 3 3 3 3 3 3 2 2 2 2 1 1 1 1 1 1 1 0 0 0 -0 -0 -0 0 1 1 2 2 3 4 4 3 3 3 3 4 4 4 4 5 6 6 6 6 6 6 6 7 7 7 7 8 8 8 8 8 8 8 8 8 8 9 9 9 9 8 8 8 8 8 9 9 8 8 8 8 8 9 9
6 5 4 4 3 3 3 3 3 3 3 3 2 2 2 2 2 1 1 1 0 1 1 0 0 -0 -0 -0 -0 0 1 1 2 2 3 3 3 3 3 3 3 3 3 4 4 5 6 6 6 6 6 6 6 6 7 7 7 7 7 7 8 8 8 8 8 8 8 8 8 8 8 8 8 8 8 8 8 8 8 8 8 8 8 8 8
6 5 5 4 3 3 3 3 3 3 3 2 2 2 2 2 2 1 1 1 0 1 0 0 0 0 -0 -0 -0 0 1 1 2 2 3 3 3 2 2 2 3 3 3 3 4 4 5 6 6 6 6 6 6 6 6 7 7 7 8 7 7 8 8 8 8 8 8 8 8 8 9 8 8 8 8 8 8 8 7 7 8 8 8 7 7
6 5 4 4 3 3 3 3 3 3 2 2 2 1 2 2 2 1 1 1 1 0 0 1 1 0 0 0 0 1 1 2 2 3 3 3 2 2 2 2 2 3 3 4 4 4 4 5 6 5 5 5 6 6 7 7 7 8 8 8 7 7 8 8 8 8 8 8 9 9 9 8 8 8 8 8 8 7 7 7 7 7 7 7 7
6 5 4 3 3 3 3 3 3 3 2 2 2 1 2 2 2 1 1 1 1 0 0 1 1 0 1 1 1 1 1 2 2 3 3 3 2 2 2 2 2 3 3 3 4 4 4 5 5 5 5 6 6 6 7 7 7 7 7 7 7 8 8 8 8 8 8 8 9 9 9 9 8 8 8 8 8 7 7 7 7 7 7 7 6
6 4 4 3 3 3 3 3 3 3 3 2 2 1 1 2 2 1 1 0 -0 -0 0 1 1 -0 0 1 1 1 1 2 2 2 3 3 3 2 2 2 2 3 3 3 4 4 4 4 5 5 5 6 6 6 6 6 6 6 6 7 7 7 7 8 8 8 8 9 9 9 9 9 9 9 8 8 8 7 7 7 7 6 6 6 6
5 4 3 3 3 3 3 3 3 3 3 2 2 1 1 1 1 1 1 0 -0 0 0 1 0 -1 -1 -0 0 1 1 2 2 2 2 2 3 2 2 2 2 3 3 4 4 3 4 4 5 5 5 5 5 6 6 6 6 6 6 7 7 7 7 8 8 8 8 9 9 9 9 9 9 8 8 8 8 7 7 7 6 6 6 6 6
4 4 3 3 3 3 3 3 3 3 3 2 2 2 1 1 1 1 1 1 0 0 0 0 -0 -1 -1 -1 0 0 1 1 2 2 2 2 2 2 2 2 2 2 3 3 4 4 4 4 4 5 5 5 5 5 5 6 6 6 6 7 7 7 7 7 8 8 8 9 9 9 9 9 9 8 8 8 7 7 7 7 6 6 6 6 6
4 3 3 3 3 3 3 3 3 3 3 3 2 2 1 2 1 1 1 0 0 1 0 0 0 -1 -1 -1 -0 -0 0 1 1 1 1 2 2 2 2 2 2 2 2 3 3 3 4 4 4 4 5 5 5 5 5 6 6 6 6 6 6 7 7 7 7 8 8 9 9 9 8 8 8 8 8 7 7 7 6 6 6 6 6 6 6
4 3 4 4 3 3 3 3 3 3 3 3 3 2 2 2 1 1 1 0 0 0 0 0 -0 -1 -1 -1 -1 -0 0 0 0 0 0 1 1 1 1 1 2 2 2 2 3 3 4 4 4 4 5 5 5 5 5 6 6 6 6 6 6 6 7 7 7 8 8 8 8 8 8 8 8 7 7 7 7 7 6 6 6 6 6 6 6
3 3 4 4 3 3 3 3 3 3 3 3 3 2 2 2 2 1 1 0 0 0 0 -0 -0 -1 -1 -1 -1 -0 -0 -0 -0 -0 0 0 1 0 0 1 2 2 2 2 3 3 4 4 4 4 4 5 5 5 5 6 6 6 6 6 6 6 6 7 7 8 8 7 8 8 8 8 7 7 7 7 7 7 7 7 7 7 7 7 7
4 3 4 4 3 3 3 3 3 3 3 3 3 3 2 2 2 1 1 1 0 0 0 -0 -0 -1 -1 -1 -1 -1 -1 -1 -1 -0 0 0 1 0 0 1 1 2 2 2 3 3 3 4 3 3 4 4 4 5 5 5 5 5 6 6 6 6 6 6 7 7 7 7 7 7 7 7 7 7 7 7 7 7 7 7 7 7 7 7 7
3 3 3 3 3 3 3 3 3 3 3 3 3 2 2 2 2 2 1 1 1 1 1 0 -0 -1 -1 -1 -1 -1 -1 -1 -1 -0 -0 0 0 0 0 0 1 2 2 2 3 3 3 3 3 3 3 3 4 4 4 4 5 5 5 6 6 6 6 6 6 7 7 7 7 7 7 7 7 7 7 7 7 7 7 7 7 7 8 8 8
4 3 3 3 3 3 3 3 3 2 2 2 2 2 2 2 2 2 1 1 1 1 1 0 0 -0 -0 -0 -0 -1 -1 -1 -1 -0 -0 -0 -0 -0 -0 0 1 1 1 2 2 2 2 2 2 2 2 2 3 3 3 4 4 4 5 5 5 6 6 6 6 6 6 6 7 7 7 7 7 7 7 7 7 7 7 7 7 7 8 8 8
4 4 3 3 3 2 2 2 2 2 2 2 2 2 2 1 2 2 1 1 1 1 1 0 0 -0 -0 0 -0 -0 -1 -1 -1 -1 -1 -1 -1 -1 -1 -0 0 0 1 1 1 1 1 1 0 0 1 1 1 1 2 2 3 3 4 4 4 5 5 6 6 6 6 6 7 7 7 7 7 7 7 7 7 7 7 7 7 8 8 8 7
4 4 4 3 2 2 2 2 2 2 2 1 2 1 1 1 1 1 1 1 1 1 1 0 -0 -0 -0 0 0 -0 -1 -1 -1 -1 -1 -1 -1 -2 -2 -1 -1 0 0 0 -0 -0 -0 -0 -0 -0 -0 -0 0 0 1 1 1 2 3 3 3 4 4 5 6 6 6 6 6 6 6 7 7 7 7 7 7 7 7 8 8 8 8 8 7
4 4 4 3 2 2 3 3 3 2 2 1 1 1 1 1 1 1 1 1 1 1 0 -0 -0 0 0 0 0 -1 -1 -2 -2 -2 -2 -2 -2 -2 -1 -1 -1 -1 -1 -2 -2 -2 -1 -1 -1 -1 -1 -1 -1 -0 -0 -0 0 1 1 2 3 3 4 4 5 5 6 6 6 6 6 6 7 7 7 7 7 7 7 8 8 8 8 8 7
2 3 3 3 2 2 3 3 3 3 2 1 1 1 1 1 1 1 1 1 0 1 0 -0 -0 0 -0 -0 -0 -1 -2 -2 -2 -2 -2 -2 -2 -2 -2 -3 -3 -4 -4 -3 -3 -3 -3 -2 -2 -2 -2 -2 -1 -1 -1 -1 -1 -0 0 1 2 2 3 4 4 5 5 5 5 6 6 6 6 7 6 7 7 7 8 8 8 8 8 7 7
3 3 3 3 3 2 3 3 3 3 2 1 2 2 1 1 1 1 1 0 0 0 0 -0 -0 0 0 -0 -0 -1 -2 -2 -2 -2 -2 -2 -2 -3 -3 -4 -4 -4 -5 -5 -4 -4 -3 -3 -3 -3 -2 -2 -2 -2 -2 -1 -1 -1 -1 -0 0 1 2 3 3 4 5 5 5 6 6 6 6 6 6 6 7 7 7 7 7 7 7 7 7
4 4 4 4 3 2 2 2 3 2 2 1 2 2 1 1 1 1 0 0 -0 -0 -0 -0 -0 -0 -0 -0 -0 -1 -2 -2 -2 -2 -3 -3 -3 -3 -4 -4 -4 -5 -5 -5 -5 -4 -4 -4 -4 -3 -3 -3 -3 -2 -2 -2 -2 -1 -1 -1 -1 -0 0 1 2 3 4 4 5 5 6 6 6 6 6 6 7 7 7 7 7 7 7 7 7
4 4 4 4 4 3 3 2 2 2 2 1 2 2 2 1 1 1 0 0 -0 -0 -0 -1 -0 -0 -1 -0 -0 -1 -2 -2 -2 -3 -3 -3 -3 -4 -4 -5 -5 -5 -5 -6 -5 -5 -5 -5 -4 -4 -4 -4 -3 -3 -3 -2 -2 -2 -2 -1 -1 -1 -0 0 1 2 3 3 4 5 5 5 5 6 6 6 7 7 6 6 7 7 7 7 7
4 4 4 4 4 4 3 3 3 3 2 2 2 2 2 1 1 1 0 0 -0 -0 -1 -1 -1 -1 -1 -1 -1 -1 -2 -2 -3 -3 -4 -4 -4 -4 -4 -5 -5 -5 -6 -6 -6 -5 -5 -5 -4 -4 -4 -4 -4 -4 -3 -3 -3 -2 -2 -2 -2 -1 -1 -0 0 1 1 2 3 4 4 5 5 5 5 6 6 6 6 6 6 6 6 7 7
4 4 4 4 4 3 3 3 3 3 3 3 2 2 2 1 1 1 1 0 -0 -1 -1 -1 -1 -1 -1 -1 -1 -2 -2 -3 -3 -4 -4 -4 -4 -4 -4 -5 -5 -5 -6 -6 -6 -6 -6 -5 -5 -5 -5 -4 -4 -4 -4 -4 -3 -3 -2 -2 -2 -2 -1 -1 -1 -0 0 1 2 3 3 4 5 5 5 6 6 6 6 6 6 6 6 6 6
3 3 3 3 3 2 2 2 3 3 2 3 3 2 1 1 1 0 0 0 -0 -1 -1 -1 -1 -2 -2 -1 -2 -2 -3 -3 -3 -4 -4 -4 -4 -4 -4 -5 -5 -5 -6 -6 -6 -6 -6 -6 -5 -5 -5 -5 -5 -5 -4 -4 -4 -3 -3 -2 -2 -2 -2 -1 -1 -1 -1 -0 1 1 2 3 3 4 5 5 6 6 6 6 6 6 6 6 6
2 2 2 2 2 2 2 2 2 2 2 2 3 2 1 1 1 0 0 0 -0 -1 -1 -1 -1 -2 -2 -2 -2 -2 -3 -3 -4 -4 -4 -4 -4 -4 -4 -5 -5 -5 -5 -6 -6 -6 -6 -6 -6 -5 -5 -5 -5 -5 -5 -5 -4 -4 -4 -3 -3 -3 -2 -2 -1 -1 -1 -1 -0 0 1 1 2 3 4 4 5 5 5 6 6 6 6 6 6
2 2 3 2 2 2 2 2 2 2 2 2 2 2 1 0 1 1 0 0 0 -1 -1 -1 -2 -2 -2 -2 -2 -2 -3 -4 -4 -4 -4 -5 -4 -4 -4 -5 -6 -6 -6 -6 -6 -5 -5 -6 -6 -5 -5 -5 -5 -5 -5 -5 -5 -5 -4 -4 -4 -3 -3 -3 -2 -2 -2 -1 -1 -0 -0 0 1 2 2 3 4 5 5 5 5 5 6 6 6
3 3 3 2 2 2 2 2 2 2 1 1 1 1 0 0 0 1 1 1 0 -1 -1 -2 -2 -2 -2 -2 -2 -3 -3 -4 -4 -4 -5 -5 -5 -4 -4 -5 -6 -6 -6 -6 -6 -6 -5 -6 -6 -5 -5 -5 -5 -5 -5 -5 -5 -5 -5 -5 -4 -4 -4 -4 -4 -3 -2 -2 -1 -1 -1 -0 0 1 1 2 3 3 4 5 5 5 5 5 5
2 2 2 1 1 1 1 2 2 1 1 0 0 0 -0 -0 -0 -0 0 0 -0 -1 -2 -2 -2 -2 -2 -2 -3 -3 -3 -4 -4 -4 -5 -5 -5 -4 -4 -4 -6 -6 -7 -6 -6 -6 -6 -6 -6 -6 -6 -6 -6 -6 -6 -5 -5 -6 -5 -5 -5 -5 -5 -5 -4 -4 -3 -3 -2 -2 -1 -1 -0 -0 0 1 1 2 3 4 4 4 5 5 5
2 2 1 1 1 1 1 2 1 1 1 1 1 0 0 -0 -0 -1 -1 -1 -1 -1 -2 -2 -2 -2 -3 -3 -3 -3 -3 -4 -4 -5 -5 -5 -5 -4 -4 -4 -5 -6 -7 -7 -7 -7 -7 -6 -6 -6 -6 -6 -6 -6 -6 -6 -6 -6 -5 -5 -5 -5 -6 -5 -4 -4 -4 -4 -3 -2 -2 -1 -1 -1 -0 -0 0 1 2 3 3 4 4 4 5
1 1 1 1 1 2 2 2 2 1 1 0 1 1 0 -0 -1 -1 -1 -1 -1 -2 -2 -2 -2 -3 -3 -3 -3 -3 -3 -4 -4 -5 -5 -5 -5 -5 -4 -4 -5 -6 -7 -7 -7 -7 -7 -7 -7 -7 -6 -6 -7 -7 -6 -6 -6 -6 -6 -5 -5 -5 -6 -5 -5 -5 -5 -4 -3 -3 -2 -2 -2 -1 -1 -1 -0 -0 1 1 2 3 4 4 4
1 1 1 1 1 1 1 1 1 1 0 0 -0 0 -0 -1 -1 -1 -1 -1 -2 -2 -2 -2 -3 -3 -3 -3 -3 -3 -3 -4 -4 -5 -5 -5 -5 -5 -5 -4 -5 -6 -7 -7 -7 -7 -8 -8 -8 -7 -7 -7 -7 -7 -6 -6 -6 -6 -6 -6 -5 -5 -5 -5 -5 -5 -5 -4 -4 -3 -3 -2 -3 -2 -2 -1 -1 -1 -0 0 1 2 3 3 4
1 1 1 1 1 1 0 0 0 0 -0 -0 -0 -1 -1 -1 -1 -1 -1 -2 -2 -2 -2 -2 -3 -3 -3 -4 -4 -4 -4 -4 -4 -5 -5 -5 -5 -5 -5 -5 -5 -6 -7 -7 -7 -7 -8 -8 -8 -8 -7 -7 -7 -7 -7 -6 -6 -6 -6 -6 -6 -5 -5 -5 -4 -5 -5 -4 -4 -3 -3 -3 -3 -3 -2 -2 -2 -1 -1 -0 0 1 2 3 3
1 1 1 1 1 0 0 0 -0 -0 -0 -0 -0 -1 -1 -1 -1 -1 -2 -2 -2 -2 -2 -3 -3 -3 -3 -4 -4 -4 -4 -4 -4 -4 -5 -5 -5 -5 -5 -5 -5 -6 -6 -7 -7 -7 -8 -8 -8 -8 -8 -7 -7 -7 -7 -6 -6 -6 -6 -6 -5 -5 -5 -5 -4 -5 -5 -4 -4 -4 -4 -4 -3 -3 -3 -2 -2 -2 -1 -1 -0 0 1 2 2
Height
1563 1562 1560 1558 1556 1554 1553 1551 1549 1547 1546 1544 1542 1541 1539 1537 1535 1533 1531 1529 1527 1525 1523 1522 1520 1518 1515 1511 1508 1506 1503 1500 1497 1493 1489 1486 1482 1478 1474 1470 1466 1463 1460 1458 1457 1457 1457 1457 1458 1460 1462 1462 1462 1463 1464 1465 1466 1466 1466 1468 1469 1471 1473 1475 1476 1479 1482 1484 1485 1486 1487 1488 1489 1489 1489 1490 1490 1490 1490 1489 1489 1490 1489 1490 1489
1564 1563 1561 1559 1557 1555 1553 1552 1550 1548 1546 1544 1543 1541 1539 1537 1535 1533 1531 1529 1527 1525 1524 1522 1520 1519 1515 1511 1508 1506 1503 1500 1497 1493 1489 1485 1481 1478 1474 1470 1466 1463 1459 1457 1456 1457 1457 1458 1459 1460 1462 1462 1462 1463 1464 1465 1465 1466 1466 1467 1469 1470 1472 1475 1476 1478 1481 1483 1484 1485 1487 1488 1489 1489 1489 1490 1490 1490 1489 1489 1489 1490 1490 1490 1489
1565 1564 1561 1560 1558 1556 1554 1552 1550 1549 1547 1545 1543 1541 1539 1537 1535 1533 1532 1530 1527 1526 1524 1522 1521 1519 1515 1511 1508 1506 1503 1500 1497 1493 1489 1485 1481 1478 1475 1470 1467 1464 1460 1457 1457 1457 1458 1458 1459 1460 1462 1462 1463 1464 1464 1464 1465 1466 1467 1468 1470 1471 1472 1474 1476 1477 1480 1482 1484 1485 1486 1488 1489 1489 1489 1489 1490 1489 1489 1490 1491 1492 1491 1490 1489
1566 1564 1562 1561 1558 1556 1555 1553 1551 1549 1547 1545 1543 1541 1539 1537 1535 1534 1532 1530 1528 1526 1525 1523 1521 1519 1516 1511 1509 1507 1504 1500 1497 1493 1489 1485 1482 1479 1475 1471 1468 1466 1463 1460 1459 1459 1460 1460 1461 1462 1463 1463 1464 1465 1465 1466 1466 1466 1468 1469 1471 1471 1472 1475 1476 1477 1479 1481 1483 1485 1486 1487 1489 1490 1490 1490 1491 1490 1491 1492 1492 1492 1491 1490 1489
1567 1565 1563 1561 1559 1557 1556 1553 1552 1550 1548 1545 1543 1541 1539 1537 1535 1534 1532 1530 1528 1526 1525 1523 1521 1520 1516 1512 1510 1507 1504 1501 1497 1493 1490 1486 1483 1480 1477 1473 1470 1469 1466 1463 1462 1462 1462 1463 1463 1464 1465 1466 1466 1466 1467 1468 1467 1467 1469 1470 1471 1472 1473 1475 1477 1478 1479 1481 1483 1485 1486 1487 1489 1490 1490 1491 1491 1491 1491 1492 1491 1492 1492 1492 1490
1567 1565 1564 1562 1560 1558 1556 1554 1553 1550 1548 1546 1544 1542 1540 1538 1536 1534 1532 1530 1529 1527 1526 1524 1522 1521 1518 1514 1511 1508 1505 1502 1498 1494 1490 1487 1484 1481 1478 1475 1473 1471 1469 1467 1466 1466 1466 1466 1466 1466 1467 1468 1468 1468 1469 1469 1468 1468 1470 1471 1471 1472 1473 1476 1478 1478 1480 1481 1483 1485 1487 1488 1489 1490 1490 1491 1491 1491 1491 1491 1491 1492 1493 1492 1492
1568 1566 1565 1563 1561 1559 1557 1555 1553 1551 1549 1547 1545 1543 1541 1538 1536 1535 1533 1531 1530 1528 1527 1525 1524 1522 1520 1515 1511 1510 1506 1502 1498 1494 1491 1488 1485 1482 1479 1477 1475 1474 1473 1471 1471 1470 1469 1469 1469 1469 1470 1470 1470 1470 1470 1470 1470 1470 1470 1470 1472 1473 1474 1476 1478 1479 1480 1482 1484 1485 1487 1488 1489 1490 1490 1491 1491 1492 1493 1493 1492 1492 1492 1493 1493
1568 1567 1565 1564 1562 1560 1558 1557 1555 1552 1550 1548 1546 1544 1542 1539 1537 1535 1534 1532 1531 1529 1528 1527 1524 1523 1521 1517 1513 1511 1508 1503 1499 1495 1492 1489 1487 1484 1481 1478 1476 1475 1474 1474 1473 1472 1471 1471 1472 1472 1472 1472 1472 1473 1472 1472 1472 1472 1471 1472 1473 1474 1475 1476 1478 1480 1481 1483 1485 1486 1487 1488 1489 1490 1490 1491 1491 1492 1493 1493 1493 1493 1493 1493 1493
1569 1568 1567 1565 1563 1561 1560 1558 1556 1553 1551 1549 1547 1545 1542 1540 1537 1536 1535 1533 1532 1531 1529 1527 1525 1523 1522 1518 1515 1513 1509 1505 1502 1499 1494 1491 1488 1486 1483 1480 1478 1477 1476 1475 1475 1474 1474 1474 1474 1474 1474 1474 1474 1474 1474 1474 1474 1474 1474 1474 1474 1476 1477 1478 1479 1481 1483 1484 1485 1487 1488 1488 1489 1490 1491 1491 1492 1493 1493 1493 1494 1494 1494 1493 1493
1570 1569 1568 1566 1564 1562 1561 1559 1556 1554 1552 1550 1548 1545 1543 1540 1538 1537 1536 1534 1534 1532 1530 1528 1526 1524 1522 1519 1516 1514 1510 1506 1504 1501 1496 1493 1490 1487 1484 1482 1480 1478 1477 1476 1476 1477 1477 1476 1476 1476 1476 1476 1476 1476 1476 1476 1476 1476 1476 1476 1476 1477 1478 1480 1481 1482 1484 1485 1486 1487 1487 1488 1490 1491 1491 1492 1493 1493 1493 1494 1494 1495 1495 1494 1493
1570 1570 1568 1567 1565 1563 1561 1559 1557 1555 1553 1551 1549 1546 1543 1541 1539 1538 1537 1535 1534 1533 1531 1530 1527 1525 1523 1520 1518 1515 1512 1508 1505 1501 1498 1494 1492 1489 1486 1484 1482 1480 1479 1478 1478 1479 1479 1478 1478 1478 1477 1478 1478 1478 1478 1478 1478 1477 1477 1478 1479 1479 1480 1482 1483 1484 1485 1486 1486 1487 1487 1488 1490 1491 1492 1493 1493 1494 1494 1494 1495 1495 1495 1494 1493
1571 1570 1569 1567 1566 1564 1562 1560 1558 1556 1554 1552 1550 1547 1545 1542 1540 1539 1538 1537 1535 1533 1532 1531 1528 1527 1525 1522 1519 1517 1514 1510 1506 1502 1499 1496 1494 1491 1488 1486 1484 1482 1480 1480 1480 1480 1480 1480 1480 1479 1479 1480 1481 1481 1480 1480 1479 1479 1479 1479 1480 1481 1482 1484 1484 1484 1485 1486 1487 1488 1488 1489 1490 1491 1492 1493 1494 1494 1494 1495 1495 1495 1495 1494 1494
1572 1571 1569 1568 1566 1564 1563 1561 1559 1558 1555 1553 1551 1548 1546 1544 1542 1540 1539 1538 1536 1535 1534 1532 1530 1528 1526 1523 1521 1518 1515 1511 1507 1504 1501 1498 1496 1493 1490 1488 1487 1485 1483 1482 1482 1482 1481 1481 1481 1481 1481 1482 1482 1482 1482 1481 1480 1480 1481 1481 1481 1482 1483 1484 1485 1485 1485 1486 1487 1488 1488 1489 1490 1492 1492 1493 1494 1495 1495 1495 1496 1496 1495 1495 1495
1573 1571 1570 1569 1566 1565 1564 1562 1561 1559 1557 1555 1552 1550 1548 1545 1543 1542 1541 1539 1538 1536 1535 1533 1531 1529 1527 1525 1523 1520 1517 1513 1509 1506 1503 1501 1498 1495 1492 1491 1489 1487 1486 1485 1484 1484 1483 1483 1483 1483 1483 1483 1482 1482 1482 1482 1481 1481 1482 1483 1483 1484 1484 1485 1486 1487 1487 1488 1488 1488 1489 1490 1491 1492 1493 1493 1494 1495 1495 1496 1497 1496 1495 1495 1495
1573 1571 1570 1569 1567 1566 1565 1563 1562 1560 1558 1556 1554 1551 1549 1547 1545 1544 1542 1541 1539 1537 1536 1534 1532 1531 1528 1526 1524 1521 1518 1515 1511 1508 1505 1503 1500 1497 1494 1493 1491 1489 1488 1487 1486 1486 1486 1485 1485 1484 1484 1484 1483 1483 1483 1483 1483 1483 1484 1484 1484 1485 1486 1486 1487 1488 1489 1489 1490 1490 1490 1491 1492 1493 1494 1494 1495 1496 1496 1497 1497 1496 1496 1495 1495
1573 1572 1571 1569 1568 1567 1566 1565 1564 1562 1560 1558 1555 1553 1551 1549 1547 1545 1544 1542 1541 1538 1537 1535 1534 1532 1530 1527 1525 1522 1519 1516 1513 1509 1506 1504 1502 1499 1496 1494 1493 1491 1489 1488 1488 1488 1487 1487 1487 1486 1486 1485 1485 1484 1485 1485 1485 1485 1486 1486 1486 1486 1487 1487 1488 1489 1490 1491 1491 1492 1492 1493 1493 1494 1495 1495 1496 1496 1497 1497 1497 1497 1496 1495 1495
1574 1572 1571 1570 1569 1568 1567 1566 1565 1564 1562 1560 1558 1556 1553 1551 1549 1547 1546 1544 1542 1540 1538 1537 1535 1533 1531 1528 1525 1523 1521 1518 1515 1512 1508 1505 1502 1500 1498 1496 1494 1492 1490 1489 1489 1489 1489 1489 1488 1488 1488 1487 1487 1487 1487 1487 1486 1486 1487 1487 1488 1488 1488 1489 1489 1490 1491 1492 1493 1493 1493 1494 1495 1495 1496 1497 1497 1497 1497 1497 1497 1497 1496 1496 1496
1574 1573 1572 1571 1570 1569 1567 1567 1566 1565 1564 1562 1560 1557 1555 1553 1551 1549 1548 1546 1544 1542 1540 1538 1536 1534 1532 1530 1527 1525 1523 1520 1517 1514 1510 1507 1504 1501 1499 1497 1495 1494 1491 1490 1490 1490 1490 1490 1489 1489 1489 1489 1489 1489 1489 1488 1488 1487 1487 1488 1489 1489 1489 1490 1491 1491 1492 1493 1493 1494 1494 1494 1495 1496 1496 1497 1497 1497 1498 1498 1497 1496 1496 1497 1497
1574 1573 1572 1572 1571 1570 1568 1568 1567 1566 1565 1563 1561 1559 1557 1555 1553 1551 1550 1548 1546 1544 1542 1540 1538 1535 1533 1532 1529 1527 1525 1522 1519 1516 1512 1509 1506 1503 1501 1499 1497 1496 1493 1491 1491 1491 1491 1491 1490 1491 1491 1491 1491 1491 1490 1490 1489 1489 1489 1489 1489 1490 1490 1491 1492 1492 1493 1493 1494 1494 1494 1495 1496 1496 1496 1497 1497 1497 1498 1498 1498 1497 1497 1496 1496
1575 1574 1573 1572 1572 1571 1570 1569 1569 1568 1566 1565 1563 1561 1559 1557 1555 1553 1551 1550 1548 1546 1544 1542 1539 1537 1535 1534 1531 1528 1526 1524 1521 1518 1514 1511 1508 1505 1503 1501 1499 1498 1495 1494 1492 1491 1491 1492 1492 1492 1492 1492 1492 1492 1491 1491 1490 1490 1490 1490 1491 1491 1491 1492 1493 1493 1493 1494 1494 1494 1495 1495 1496 1496 1496 1497 1497 1497 1498 1498 1498 1498 1498 1497 1496
1575 1574 1573 1573 1572 1572 1571 1570 1569 1569 1568 1566 1565 1562 1560 1558 1556 1554 1552 1551 1550 1548 1546 1544 1541 1539 1537 1535 1533 1531 1529 1526 1524 1520 1517 1513 1510 1508 1506 1504 1503 1500 1498 1496 1495 1493 1492 1493 1493 1493 1494 1494 1494 1493 1492 1492 1491 1491 1492 1492 1492 1493 1493 1494 1494 1494 1495 1495 1495 1495 1496 1496 1496 1496 1497 1497 1498 1498 1498 1498 1498 1498 1498 1498 1498
1575 1575 1574 1573 1573 1572 1572 1571 1570 1570 1569 1567 1565 1563 1561 1559 1558 1555 1554 1553 1551 1549 1547 1545 1543 1540 1539 1537 1535 1533 1531 1528 1526 1523 1519 1516 1514 1511 1509 1508 1506 1503 1501 1499 1498 1496 1495 1495 1495 1495 1496 1496 1496 1495 1494 1493 1492 1492 1492 1493 1493 1494 1494 1495 1495 1495 1496 1496 1496 1496 1496 1496 1497 1497 1498 1498 1499 1499 1498 1498 1499 1499 1499 1499 1499
1576 1575 1574 1574 1573 1573 1573 1572 1571 1571 1569 1568 1566 1564 1562 1561 1559 1557 1555 1554 1552 1550 1548 1546 1544 1542 1540 1538 1536 1534 1532 1530 1527 1524 1521 1519 1517 1514 1512 1510 1508 1506 1503 1502 1501 1500 1499 1498 1498 1498 1498 1498 1497 1496 1495 1495 1494 1494 1494 1494 1495 1495 1496 1496 1496 1496 1496 1497 1497 1497 1498 1498 1498 1499 1499 1499 1499 1499 1499 1499 1500 1500 1499 1500 1500
1576 1575 1575 1575 1574 1574 1573 1573 1573 1572 1570 1569 1567 1565 1564 1562 1560 1558 1556 1555 1553 1551 1549 1547 1545 1543 1541 1539 1537 1536 1534 1531 1529 1526 1523 1521 1519 1517 1515 1513 1510 1508 1506 1505 1504 1503 1502 1502 1501 1501 1501 1500 1499 1497 1496 1496 1496 1497 1497 1496 1496 1497 1497 1497 1498 1498 1498 1498 1498 1498 1499 1499 1499 1500 1500 1500 1499 1499 1500 1500 1501 1500 1500 1500 1501
1575 1575 1575 1575 1575 1575 1574 1574 1574 1573 1572 1570 1568 1567 1565 1563 1561 1560 1558 1556 1555 1553 1551 1548 1546 1544 1543 1541 1539 1537 1535 1532 1530 1527 1524 1522 1520 1518 1517 1515 1512 1510 1508 1507 1506 1505 1505 1504 1504 1503 1502 1501 1500 1499 1498 1497 1497 1498 1498 1498 1498 1497 1497 1497 1498 1498 1499 1499 1499 1500 1499 1499 1499 1500 1501 1501 1500 1500 1501 1501 1501 1501 1501 1501 1501
1576 1576 1576 1575 1575 1575 1575 1574 1575 1574 1573 1571 1570 1569 1567 1565 1563 1561 1559 1558 1556 1554 1552 1550 1547 1546 1545 1543 1541 1538 1536 1534 1531 1528 1526 1523 1521 1519 1518 1516 1514 1512 1510 1509 1508 1507 1506 1506 1505 1505 1503 1502 1501 1501 1499 1499 1498 1498 1498 1499 1499 1499 1498 1498 1498 1499 1499 1499 1500 1500 1499 1499 1500 1501 1501 1502 1501 1501 1501 1501 1501 1501 1502 1502 1501
1576 1576 1576 1576 1576 1576 1575 1575 1575 1575 1574 1573 1571 1570 1569 1567 1565 1563 1561 1560 1558 1556 1554 1552 1549 1547 1546 1544 1542 1540 1537 1535 1532 1529 1527 1525 1523 1521 1519 1517 1515 1514 1512 1510 1509 1508 1507 1506 1506 1506 1505 1503 1503 1502 1501 1500 1500 1499 1498 1498 1499 1499 1500 1500 1500 1499 1499 1499 1500 1500 1499 1500 1501 1501 1502 1502 1502 1502 1502 1502 1502 1502 1503 1503 1502
1576 1577 1576 1576 1576 1576 1576 1576 1576 1575 1575 1574 1573 1572 1570 1568 1567 1565 1564 1562 1560 1558 1557 1554 1552 1550 1548 1546 1544 1541 1539 1536 1533 1531 1529 1527 1525 1523 1521 1519 1517 1515 1514 1512 1510 1509 1508 1507 1507 1506 1505 1504 1504 1504 1503 1501 1501 1500 1500 1499 1498 1498 1500 1501 1501 1501 1500 1500 1500 1500 1500 1501 1502 1502 1503 1503 1503 1503 1503 1503 1503 1504 1505 1504 1503
1577 1577 1576 1576 1576 1576 1576 1576 1576 1576 1575 1574 1573 1573 1572 1570 1569 1567 1566 1564 1563 1561 1559 1557 1554 1553 1551 1548 1546 1543 1541 1539 1537 1535 1534 1532 1529 1526 1524 1522 1520 1518 1516 1515 1513 1511 1509 1508 1507 1507 1506 1505 1505 1504 1504 1503 1502 1502 1502 1501 1500 1499 1499 1499 1499 1500 1501 1502 1502 1502 1503 1503 1504 1504 1504 1504 1504 1504 1504 1504 1505 1506 1506 1506 1505
1578 1577 1577 1576 1576 1577 1577 1577 1577 1576 1576 1575 1574 1573 1572 1571 1570 1569 1568 1566 1565 1563 1561 1559 1557 1555 1553 1552 1549 1547 1545 1543 1541 1540 1537 1535 1533 1530 1528 1526 1524 1521 1519 1517 1515 1512 1510 1509 1509 1508 1507 1507 1506 1505 1505 1504 1504 1504 1503 1503 1502 1502 1501 1500 1500 1501 1502 1504 1505 1505 1504 1505 1505 1505 1505 1504 1505 1505 1505 1505 1506 1506 1506 1507 1506
1578 1578 1577 1577 1577 1577 1577 1577 1577 1577 1576 1576 1575 1574 1573 1572 1571 1570 1570 1568 1566 1565 1563 1561 1559 1558 1556 1554 1552 1550 1548 1546 1544 1541 1539 1537 1535 1533 1531 1530 1527 1524 1522 1519 1516 1514 1512 1511 1511 1510 1509 1509 1508 1507 1506 1505 1505 1505 1505 1504 1504 1504 1504 1503 1503 1503 1502 1502 1504 1506 1506 1505 1505 1506 1505 1505 1505 1505 1505 1505 1506 1506 1506 1507 1507
1577 1577 1577 1577 1577 1577 1578 1578 1577 1577 1577 1576 1576 1575 1574 1573 1572 1571 1570 1569 1568 1566 1565 1563 1561 1560 1559 1557 1554 1552 1550 1548 1546 1543 1541 1539 1537 1535 1534 1532 1529 1526 1524 1521 1518 1516 1515 1514 1513 1512 1511 1510 1510 1509 1509 1507 1506 1506 1506 1506 1505 1505 1505 1505 1504 1504 1504 1502 1502 1504 1506 1506 1506 1506 1506 1506 1506 1506 1506 1506 1506 1506 1506 1507 1507
1576 1576 1577 1577 1577 1578 1578 1577 1577 1577 1577 1576 1576 1575 1575 1574 1574 1573 1571 1570 1569 1568 1566 1565 1563 1562 1560 1559 1556 1554 1552 1550 1548 1546 1543 1541 1539 1537 1535 1533 1531 1529 1526 1522 1520 1519 1518 1517 1516 1514 1513 1512 1511 1511 1510 1509 1508 1507 1507 1507 1506 1506 1506 1506 1505 1505 1505 1503 1502 1502 1504 1506 1506 1506 1506 1506 1506 1506 1507 1507 1507 1507 1507 1507 1507
1576 1577 1577 1577 1577 1577 1577 1577 1577 1577 1577 1577 1576 1576 1575 1575 1574 1574 1573 1571 1570 1569 1568 1566 1565 1564 1562 1560 1558 1556 1554 1552 1550 1548 1546 1544 1542 1540 1538 1535 1532 1530 1527 1525 1523 1522 1521 1520 1519 1517 1516 1514 1513 1512 1511 1510 1509 1508 1508 1507 1507 1507 1506 1506 1506 1505 1505 1504 1504 1503 1502 1503 1504 1506 1506 1507 1506 1506 1507 1507 1507 1508 1508 1507 1508
1576 1577 1577 1577 1577 1577 1577 1577 1577 1576 1577 1577 1576 1576 1576 1575 1575 1575 1574 1572 1572 1571 1570 1568 1567 1565 1563 1561 1559 1557 1555 1554 1552 1550 1548 1546 1544 1542 1539 1536 1533 1531 1530 1528 1526 1525 1524 1523 1521 1520 1519 1517 1515 1514 1512 1511 1510 1509 1508 1507 1507 1507 1507 1506 1506 1506 1505 1505 1505 1505 1503 1503 1503 1503 1504 1506 1507 1507 1507 1507 1507 1508 1508 1507 1508
1577 1577 1577 1577 1577 1577 1577 1577 1577 1576 1577 1577 1577 1576 1576 1575 1575 1575 1574 1573 1572 1572 1571 1570 1569 1567 1564 1562 1560 1558 1557 1556 1554 1552 1550 1548 1546 1543 1540 1537 1536 1535 1533 1532 1530 1529 1527 1526 1524 1523 1521 1520 1518 1516 1515 1513 1511 1510 1509 1508 1507 1507 1507 1506 1506 1506 1506 1506 1506 1505 1504 1504 1504 1503 1503 1504 1506 1507 1508 1508 1507 1507 1507 1507 1508
1576 1577 1576 1577 1577 1577 1577 1577 1577 1577 1577 1577 1577 1576 1576 1575 1575 1575 1575 1574 1573 1573 1572 1570 1569 1567 1565 1563 1561 1559 1558 1558 1556 1554 1552 1550 1547 1544 1542 1541 1540 1538 1537 1535 1534 1532 1530 1528 1527 1525 1524 1522 1521 1519 1517 1515 1513 1512 1510 1509 1507 1507 1507 1507 1506 1505 1505 1506 1506 1505 1505 1505 1505 1505 1505 1504 1504 1505 1507 1507 1507 1507 1508 1508 1508
1576 1576 1576 1576 1576 1577 1577 1577 1577 1577 1577 1577 1577 1576 1576 1576 1575 1575 1575 1574 1573 1573 1572 1571 1569 1567 1565 1563 1562 1560 1559 1559 1557 1555 1553 1551 1549 1547 1546 1545 1543 1542 1540 1539 1537 1535 1533 1531 1529 1528 1526 1525 1523 1521 1520 1518 1516 1514 1512 1510 1509 1508 1507 1506 1506 1506 1505 1505 1506 1506 1505 1506 1506 1505 1505 1505 1505 1505 1506 1507 1507 1508 1508 1508 1509
1575 1575 1576 1576 1576 1576 1577 1577 1577 1578 1578 1578 1578 1577 1577 1576 1576 1575 1575 1575 1574 1573 1573 1571 1570 1568 1566 1565 1563 1561 1560 1559 1557 1555 1554 1553 1551 1550 1548 1547 1546 1544 1543 1541 1540 1537 1535 1534 1532 1530 1528 1527 1525 1523 1522 1520 1518 1516 1514 1512 1510 1508 1507 1506 1506 1506 1505 1505 1506 1505 1505 1506 1506 1506 1505 1505 1506 1506 1506 1506 1507 1508 1508 1508 1508
1574 1575 1576 1576 1576 1577 1577 1577 1577 1578 1578 1578 1578 1578 1577 1577 1576 1576 1576 1575 1574 1574 1573 1572 1571 1569 1568 1567 1564 1562 1561 1560 1559 1558 1557 1555 1553 1552 1550 1549 1548 1547 1545 1544 1542 1540 1538 1536 1534 1532 1530 1529 1527 1525 1523 1522 1520 1518 1516 1514 1512 1509 1508 1507 1506 1506 1505 1505 1505 1505 1505 1505 1505 1506 1505 1505 1505 1506 1506 1506 1506 1507 1508 1508 1508
1574 1575 1575 1576 1576 1577 1577 1577 1577 1578 1578 1578 1578 1578 1578 1577 1577 1577 1576 1575 1575 1574 1574 1573 1572 1570 1569 1568 1566 1564 1563 1562 1561 1560 1559 1557 1555 1554 1552 1551 1550 1549 1547 1546 1544 1542 1540 1539 1536 1534 1533 1531 1528 1526 1525 1523 1521 1519 1517 1515 1513 1511 1510 1508 1507 1506 1505 1505 1504 1504 1504 1504 1504 1505 1505 1505 1505 1506 1506 1506 1506 1506 1508 1509 1509
1574 1575 1575 1576 1576 1576 1577 1577 1577 1577 1578 1578 1578 1578 1578 1577 1577 1577 1577 1576 1575 1575 1575 1574 1573 1571 1570 1569 1567 1566 1565 1563 1562 1561 1560 1559 1557 1556 1554 1553 1552 1550 1549 1547 1546 1544 1542 1540 1538 1536 1535 1532 1530 1528 1526 1524 1522 1520 1518 1517 1515 1513 1511 1510 1509 1507 1506 1505 1505 1504 1504 1503 1503 1504 1504 1505 1505 1505 1506 1506 1506 1505 1507 1508 1509
1573 1574 1575 1575 1576 1576 1576 1577 1577 1577 1578 1578 1578 1578 1578 1577 1578 1577 1577 1576 1576 1575 1575 1575 1574 1573 1571 1569 1568 1567 1566 1565 1564 1562 1561 1560 1559 1557 1555 1554 1553 1552 1550 1549 1547 1546 1544 1542 1540 1538 1536 1534 1532 1530 1527 1525 1523 1521 1520 1518 1516 1514 1513 1511 1509 1508 1507 1506 1505 1504 1503 1503 1502 1502 1503 1503 1504 1505 1505 1506 1506 1505 1505 1506 1508
1572 1573 1574 1575 1575 1575 1576 1576 1576 1577 1577 1577 1578 1578 1578 1578 1578 1577 1577 1576 1576 1575 1576 1575 1574 1573 1572 1570 1568 1568 1567 1566 1565 1564 1562 1561 1559 1558 1557 1556 1554 1553 1552 1550 1548 1547 1545 1543 1542 1540 1538 1536 1535 1532 1530 1528 1525 1523 1521 1519 1517 1515 1513 1511 1510 1509 1507 1506 1505 1504 1503 1502 1501 1501 1501 1502 1503 1504 1504 1505 1505 1505 1505 1505 1506
1571 1572 1573 1574 1574 1575 1575 1575 1576 1576 1577 1577 1578 1578 1578 1578 1577 1577 1577 1576 1575 1575 1576 1575 1574 1573 1572 1570 1569 1568 1567 1567 1566 1564 1563 1562 1560 1559 1558 1557 1555 1554 1553 1551 1549 1548 1546 1544 1543 1541 1539 1538 1536 1534 1532 1530 1528 1525 1523 1521 1519 1516 1514 1513 1512 1510 1508 1507 1505 1504 1503 1502 1501 1500 1500 1500 1501 1502 1503 1503 1504 1504 1504 1505 1505
1570 1571 1572 1573 1574 1574 1575 1575 1575 1576 1576 1577 1577 1577 1578 1577 1577 1577 1576 1576 1575 1575 1575 1575 1574 1573 1572 1570 1570 1569 1568 1567 1567 1565 1564 1562 1561 1560 1558 1557 1556 1555 1554 1552 1550 1548 1547 1545 1544 1542 1540 1539 1537 1535 1534 1532 1530 1528 1526 1523 1521 1519 1517 1515 1513 1512 1509 1508 1506 1504 1503 1502 1501 1500 1499 1499 1499 1499 1500 1501 1502 1503 1503 1504 1504
1569 1570 1571 1572 1573 1573 1574 1574 1574 1575 1575 1575 1576 1576 1576 1576 1576 1577 1576 1575 1575 1575 1575 1575 1574 1573 1572 1571 1570 1569 1568 1568 1567 1566 1564 1563 1561 1560 1559 1558 1557 1556 1555 1553 1551 1549 1548 1546 1544 1543 1541 1540 1538 1536 1535 1533 1531 1529 1527 1525 1523 1520 1518 1516 1515 1513 1511 1509 1507 1505 1504 1502 1501 1499 1498 1497 1497 1497 1498 1499 1500 1501 1501 1502 1503
1568 1569 1570 1570 1571 1572 1572 1573 1573 1574 1574 1574 1574 1575 1575 1575 1576 1576 1576 1575 1575 1575 1575 1574 1574 1573 1572 1570 1569 1569 1568 1567 1567 1566 1565 1563 1561 1560 1559 1558 1557 1556 1555 1554 1552 1550 1549 1547 1545 1543 1542 1541 1539 1537 1536 1534 1532 1530 1529 1527 1524 1522 1520 1518 1516 1514 1512 1510 1509 1507 1505 1502 1501 1499 1498 1496 1495 1495 1495 1496 1497 1498 1499 1500 1501
1566 1567 1568 1569 1570 1571 1571 1572 1573 1573 1573 1573 1574 1574 1574 1575 1575 1575 1575 1575 1575 1574 1574 1574 1573 1572 1572 1570 1569 1568 1568 1567 1566 1566 1564 1563 1561 1560 1559 1558 1557 1556 1555 1554 1553 1551 1550 1548 1546 1544 1542 1541 1540 1538 1536 1535 1533 1531 1529 1527 1526 1524 1522 1520 1517 1515 1513 1511 1509 1507 1505 1503 1501 1499 1498 1496 1495 1494 1493 1493 1494 1495 1497 1498 1499
1564 1565 1566 1567 1569 1570 1571 1571 1572 1572 1572 1573 1573 1573 1573 1574 1575 1574 1574 1574 1574 1573 1573 1573 1573 1572 1571 1570 1569 1568 1567 1567 1566 1565 1564 1563 1561 1560 1559 1558 1557 1556 1554 1553 1552 1551 1550 1549 1547 1545 1543 1541 1540 1539 1537 1535 1533 1531 1529 1528 1526 1524 1523 1520 1518 1515 1513 1512 1510 1507 1505 1503 1502 1500 1498 1496 1494 1493 1492 1491 1491 1492 1494 1495 1496
1563 1564 1565 1566 1567 1568 1569 1570 1570 1571 1571 1571 1572 1573 1573 1573 1574 1573 1573 1573 1573 1572 1572 1572 1572 1571 1570 1569 1568 1567 1567 1566 1565 1564 1563 1562 1561 1560 1558 1557 1556 1555 1554 1553 1552 1551 1550 1549 1547 1545 1543 1541 1540 1539 1537 1535 1534 1532 1530 1529 1527 1525 1523 1521 1518 1516 1514 1512 1510 1508 1506 1504 1502 1500 1498 1496 1494 1492 1491 1490 1489 1489 1491 1492 1493
Wind_Speed
17 19 20 21 23 25 24 24 24 24 25 23 23 24 24 24 25 25 25 25 25 26 26 25 26 27 26 26 29 32 34 35 38 40 39 38 37 38 38 34 33 35 31 21 13 7 3 3 4 4 3 2 2 3 4 4 5 9 16 20 17 15 18 19 21 22 18 14 15 15 12 8 10 11 11 4 4 4 4 3 7 12 10 11 13
17 19 21 22 23 24 24 24 24 23 25 24 23 25 25 24 25 25 25 25 25 25 26 26 26 26 25 27 31 33 35 37 39 40 39 38 37 36 36 34 33 37 31 19 13 7 2 3 3 3 2 2 3 4 6 6 4 7 11 15 15 13 18 20 20 21 20 17 16 14 10 9 11 10 10 4 5 7 5 4 8 10 10 13 13
17 19 21 22 22 23 24 24 23 23 25 25 24 25 25 25 25 25 25 25 25 25 25 25 26 26 26 28 32 34 36 38 39 39 39 37 34 34 35 32 31 34 30 17 9 5 2 0 2 2 1 3 5 5 6 6 3 5 8 12 14 15 20 21 20 22 21 19 16 13 9 11 11 8 6 2 5 7 7 6 6 6 9 12 12
17 19 20 21 23 24 24 24 24 24 25 25 25 25 25 25 25 24 24 25 25 25 25 25 25 26 27 29 32 34 37 39 39 39 37 35 32 32 34 31 27 30 29 20 15 12 9 6 4 1 1 3 6 8 5 3 2 1 6 10 13 16 20 20 19 20 20 19 16 10 7 11 12 9 6 2 2 3 4 3 3 5 7 9 11
17 19 20 22 23 23 23 24 24 24 25 25 25 25 24 25 24 24 24 24 25 25 25 25 25 26 27 29 32 35 37 38 38 37 36 33 32 33 33 29 25 25 26 23 20 17 14 12 9 5 4 5 7 11 9 5 6 5 3 7 12 16 20 19 18 19 17 17 16 10 7 10 11 9 6 2 1 2 2 4 4 3 5 7 9
17 19 20 22 23 22 23 23 23 24 24 25 25 25 25 25 24 25 25 25 25 25 26 26 26 26 26 29 33 35 36 37 36 36 36 33 32 33 33 28 22 20 21 22 21 19 15 13 11 8 8 9 10 13 13 13 12 9 5 6 11 15 17 17 17 18 16 15 15 11 8 10 8 6 6 2 1 2 2 6 5 1 5 9 8
17 19 20 21 22 21 22 22 23 24 25 25 26 25 25 25 24 24 25 25 25 25 26 27 26 25 26 29 33 33 35 36 36 37 37 34 33 33 32 30 23 15 15 16 17 20 19 15 13 12 12 14 12 12 14 16 16 14 10 7 8 14 17 16 15 17 16 15 13 9 8 9 5 5 7 1 3 2 1 5 3 1 4 8 7
17 18 19 20 21 20 21 22 22 24 24 24 25 25 25 25 23 23 25 25 25 25 25 25 23 23 25 27 30 32 35 38 38 39 36 33 33 32 30 30 24 15 14 13 11 16 20 17 16 16 17 16 14 12 13 14 14 14 12 8 6 11 15 17 16 17 17 15 11 8 8 7 4 5 6 2 3 3 2 5 2 1 5 7 5
17 18 18 19 20 20 20 21 22 23 24 24 25 24 25 25 23 23 25 26 25 25 25 24 23 23 24 25 28 31 37 40 39 37 35 32 31 29 28 29 24 16 16 14 7 9 16 17 16 18 19 18 16 15 15 14 12 11 12 9 7 6 8 14 17 17 16 13 11 9 8 6 5 7 5 5 4 3 4 5 2 2 6 6 3
17 17 18 19 19 19 20 20 22 23 24 25 24 25 25 25 23 23 25 26 25 26 27 26 25 25 23 24 28 32 37 40 37 34 32 29 28 28 27 28 25 18 16 14 7 7 13 16 13 16 19 19 18 18 18 15 11 8 9 8 7 5 6 11 13 15 15 12 10 8 7 6 7 6 4 4 3 4 6 7 5 5 6 5 3
16 16 17 18 19 19 19 20 22 23 24 24 25 26 26 25 25 25 25 25 23 24 26 26 26 26 25 26 29 31 36 39 37 33 32 28 25 27 27 26 27 24 17 12 8 8 12 16 13 15 20 19 16 16 16 16 14 8 5 7 8 7 8 7 8 9 9 9 8 6 7 9 7 3 2 4 3 3 4 5 5 4 6 6 1
16 16 16 18 18 19 19 21 23 23 23 25 26 26 26 25 25 25 25 25 25 25 26 26 26 26 27 28 29 30 34 38 37 35 32 27 23 26 26 23 25 27 19 11 9 8 11 15 13 15 19 17 14 13 12 15 17 11 5 5 8 8 6 5 7 7 6 8 7 4 7 9 6 4 5 5 4 4 4 4 4 3 4 5 4
15 16 16 17 18 19 20 21 22 22 24 25 26 27 27 27 25 24 24 25 26 27 27 26 26 26 28 28 28 30 33 36 38 37 32 25 23 26 27 23 23 25 21 12 8 8 11 14 13 14 16 15 15 13 11 13 16 15 10 6 6 5 4 4 5 7 8 10 8 7 8 7 5 6 7 4 4 5 6 5 5 5 5 5 6
15 16 16 17 19 20 20 21 21 22 24 25 26 27 28 27 25 24 25 25 26 26 25 25 25 26 28 28 27 29 32 35 37 37 31 25 23 26 28 24 21 22 21 15 8 6 11 14 13 14 15 15 16 14 11 13 16 16 12 7 4 3 3 4 2 4 8 9 8 9 9 7 6 8 7 3 4 4 4 3 3 6 6 4 3
15 16 16 17 19 20 20 20 20 22 24 25 26 27 28 27 25 24 25 26 26 24 23 24 25 25 26 28 27 28 30 34 36 36 32 25 21 24 27 26 23 19 19 16 8 5 10 13 12 13 14 16 17 13 12 14 15 15 12 8 6 4 2 4 2 3 5 6 6 7 8 7 7 8 6 2 3 3 3 5 5 5 5 6 3
15 16 16 17 18 19 18 18 20 21 22 24 25 26 27 27 25 24 25 26 25 24 23 24 24 24 24 26 27 27 28 33 35 34 32 26 22 23 26 27 27 22 19 16 9 4 8 12 11 11 12 14 15 12 11 12 13 14 12 10 9 7 2 3 1 1 2 4 4 5 6 5 4 4 4 3 5 4 3 6 7 5 7 7 3
14 15 16 16 18 18 17 17 19 20 21 23 24 24 26 27 25 24 25 26 26 25 23 21 21 21 22 25 27 27 28 32 33 33 32 28 25 26 27 27 28 26 23 19 10 3 7 12 11 10 11 13 14 11 8 9 11 12 12 9 10 10 6 2 1 1 1 1 2 3 4 4 4 3 2 2 3 2 2 5 6 6 9 5 3
14 15 16 16 16 17 17 17 19 19 20 21 22 22 25 25 24 23 24 24 25 25 23 22 21 20 22 25 27 27 30 31 30 31 32 29 28 29 29 28 29 28 26 23 12 4 6 11 10 8 9 12 14 12 7 5 7 9 9 8 8 9 9 6 3 1 1 1 1 3 3 3 3 2 1 3 3 0 3 3 2 7 8 5 4
13 14 14 14 14 16 17 17 18 18 19 20 21 22 23 23 22 22 22 23 24 24 23 23 23 23 24 26 26 28 33 34 31 30 30 29 29 30 30 30 29 28 28 26 16 5 5 9 10 8 8 10 13 13 10 6 4 4 6 8 7 8 10 9 7 5 4 2 2 4 4 3 3 3 4 6 6 1 3 2 3 5 8 7 2
13 13 13 13 13 14 16 16 16 17 18 19 19 21 21 21 22 22 22 23 23 23 23 24 26 26 26 27 27 30 34 36 33 30 28 28 29 29 29 30 29 29 29 28 21 11 5 7 9 8 7 8 11 14 13 8 4 1 2 6 6 7 8 8 7 6 6 5 5 5 5 4 4 4 4 5 5 2 2 1 4 3 5 8 5
12 12 13 13 13 13 15 16 15 15 17 17 17 19 21 21 21 22 23 23 23 23 23 25 27 29 29 29 31 33 36 36 35 32 30 28 28 27 28 28 27 28 28 28 25 18 11 9 10 8 7 9 12 14 14 11 6 1 1 3 3 6 5 4 5 5 5 7 8 8 8 6 6 7 7 7 7 4 2 3 5 5 1 7 7
11 12 13 14 14 13 14 16 16 15 16 17 17 18 21 22 22 22 23 23 23 23 24 25 28 31 31 30 31 34 37 37 36 36 34 31 28 25 24 24 25 26 26 25 24 22 17 13 11 9 9 11 13 14 14 12 10 6 2 2 1 1 1 2 4 5 2 5 6 7 6 5 6 7 8 6 7 2 3 5 4 3 2 3 4
11 13 13 13 14 13 13 14 16 15 16 18 19 18 21 24 26 24 23 23 25 27 28 28 28 30 34 34 31 33 37 37 36 38 38 36 32 27 23 23 23 24 25 23 22 20 18 15 12 11 10 12 14 16 16 15 15 13 10 7 4 3 2 2 3 4 4 1 2 3 3 2 2 3 3 3 3 4 5 6 5 1 2 2 2
12 12 12 12 13 13 12 12 15 15 15 17 20 19 20 25 29 28 26 25 26 29 30 31 29 30 34 37 34 33 36 36 36 37 38 38 36 31 27 25 24 23 23 21 18 17 16 14 11 10 10 13 16 18 18 17 18 17 14 12 10 8 7 6 3 4 5 3 3 3 0 2 2 2 4 4 5 5 5 7 6 2 2 1 1
12 11 11 11 12 12 12 11 13 14 13 16 20 20 19 24 29 30 29 28 28 29 31 32 31 30 32 35 35 34 35 34 35 37 37 37 37 34 31 28 25 24 22 19 16 14 11 9 8 8 9 11 13 15 16 15 15 15 14 12 8 6 7 7 5 2 3 2 2 2 3 5 4 4 5 5 5 6 8 8 3 1 1 1 1
11 10 9 9 10 10 11 11 11 11 11 14 19 19 17 22 29 30 29 30 30 31 31 32 31 30 30 33 34 34 34 34 34 35 36 37 37 35 34 31 27 25 22 18 16 13 8 6 6 7 8 9 10 11 11 9 9 11 13 14 13 7 5 7 6 5 4 2 2 3 5 6 4 3 5 6 5 7 8 6 8 7 5 4 3
10 9 8 8 8 8 10 11 10 10 9 11 16 18 17 21 27 29 28 30 32 31 31 32 32 31 31 32 33 33 34 34 34 35 35 35 34 33 33 32 30 28 24 20 18 15 11 7 6 5 5 6 8 10 9 8 10 12 11 11 14 10 5 4 7 9 10 8 4 4 4 1 2 5 4 2 3 6 5 7 9 8 6 4 6
9 7 6 8 9 8 9 10 10 10 9 8 13 17 18 20 24 26 26 29 31 31 31 31 31 31 30 31 32 33 33 33 33 33 33 32 31 31 31 30 29 28 25 20 16 14 12 8 6 4 3 3 6 10 11 10 11 11 10 9 11 11 8 6 8 7 11 11 6 3 4 5 4 5 5 2 0 3 4 5 4 4 3 1 4
7 6 5 7 9 8 8 9 9 10 9 8 12 16 17 18 21 24 25 26 28 30 31 31 30 30 29 29 30 32 32 31 29 27 27 27 28 29 28 26 26 25 23 19 15 12 9 8 6 5 3 1 4 9 12 12 11 10 10 8 8 11 12 10 7 5 8 10 8 5 5 6 3 3 2 1 1 1 2 2 2 1 0 1 1
5 5 5 7 9 8 8 8 8 9 9 9 12 14 15 16 18 21 23 24 25 27 30 31 30 29 28 27 28 30 30 28 25 23 23 24 26 28 27 25 23 22 21 20 18 15 11 10 10 9 7 4 4 8 11 12 11 12 11 8 8 11 13 13 9 7 6 8 7 6 5 4 3 3 1 2 2 2 2 3 5 5 3 3 4
5 4 5 6 9 8 7 7 8 8 8 9 10 12 13 14 16 18 20 22 23 25 28 29 30 28 26 25 26 28 29 28 26 23 22 23 24 26 27 26 24 24 23 21 21 21 19 16 13 12 11 8 6 8 10 11 11 12 11 8 9 11 11 10 9 7 7 7 6 5 4 3 3 3 2 2 1 2 3 1 5 5 4 2 4
6 6 6 7 8 8 7 7 7 7 8 9 9 9 10 11 14 16 18 19 21 23 25 28 28 27 24 24 26 28 29 29 28 26 24 24 25 26 28 28 27 26 25 24 24 26 26 23 20 17 14 11 8 7 8 10 11 11 9 8 8 8 8 6 6 4 7 8 6 5 4 3 2 1 2 2 0 1 3 3 2 2 3 3 5
6 7 8 8 7 6 7 6 6 7 8 9 9 9 9 9 11 13 15 17 18 19 22 25 27 26 23 22 25 28 29 29 28 27 26 26 27 26 26 28 29 28 27 27 28 28 28 27 26 24 20 17 14 10 7 7 8 9 9 9 7 7 6 4 3 2 6 5 6 6 4 3 3 2 3 3 1 1 1 1 1 1 1 2 4
6 6 8 8 7 5 5 5 5 7 8 9 8 9 9 10 10 11 12 14 15 17 19 22 25 24 22 21 24 27 28 29 29 29 28 28 28 26 25 26 29 30 29 30 31 30 29 28 27 26 24 22 20 17 13 9 7 7 8 9 7 5 4 2 1 2 4 4 5 5 5 6 5 2 2 4 3 1 1 0 1 0 1 3 2
6 4 6 8 7 5 5 5 5 8 9 9 8 8 9 10 10 10 11 12 13 13 14 17 21 22 21 20 23 25 27 28 28 29 29 29 28 28 29 30 31 31 32 33 32 30 29 28 27 26 26 25 24 23 21 18 13 9 7 8 8 6 4 2 1 2 2 4 5 4 4 6 6 3 2 4 2 2 1 1 1 2 2 2 1
5 3 4 7 6 5 6 6 6 9 10 9 8 8 9 10 10 10 11 11 12 12 10 13 19 22 20 19 21 24 24 25 25 26 28 28 28 29 31 32 32 31 32 34 34 31 29 28 27 26 26 26 25 25 24 23 20 16 13 9 8 8 7 4 3 3 3 3 3 2 1 3 3 1 1 4 1 2 2 1 2 2 3 2 3
6 5 5 7 7 6 6 6 7 9 11 8 7 8 9 10 10 10 10 11 12 12 10 13 20 24 23 21 21 23 22 22 22 24 26 27 28 29 29 28 29 30 31 32 32 32 30 29 28 27 26 26 25 25 24 24 23 20 18 15 10 7 7 8 7 5 4 3 2 0 2 2 2 3 2 5 4 1 2 2 3 3 2 3 4
6 6 5 6 7 7 6 6 7 9 9 7 6 9 10 10 10 10 10 10 12 12 11 13 19 24 24 22 22 22 21 21 22 24 25 26 27 27 26 25 25 27 28 29 30 32 32 31 29 28 27 26 25 24 24 24 23 22 20 19 16 11 7 8 10 9 7 5 3 2 4 3 2 2 1 3 4 2 3 3 1 4 4 3 6
6 7 6 6 7 8 8 8 7 7 8 6 6 8 10 10 10 10 10 10 11 12 12 12 17 22 23 22 22 23 22 22 23 24 24 25 25 25 24 23 23 24 25 26 29 31 32 31 30 29 29 28 26 25 24 24 23 23 22 21 20 17 13 7 8 10 10 9 7 5 5 4 2 1 1 2 4 3 2 4 2 4 6 2 7
7 7 7 7 7 8 9 9 7 7 7 7 7 8 9 10 10 10 10 10 11 11 12 12 15 19 21 21 21 22 21 21 21 21 21 22 23 23 23 22 22 22 22 23 25 28 31 31 29 30 30 28 27 27 27 25 24 23 23 23 23 22 20 16 11 8 8 11 10 8 7 7 5 2 2 4 5 5 1 4 4 1 3 1 5
7 7 7 8 8 8 7 7 7 7 7 7 7 8 9 10 10 10 10 11 11 11 11 11 13 16 19 19 19 19 19 20 19 19 19 20 21 21 22 21 21 21 21 20 21 23 26 29 29 29 29 28 28 28 28 27 26 25 24 24 24 23 21 20 17 14 9 7 10 11 10 10 8 5 4 4 5 5 2 3 4 3 1 1 3
7 7 8 7 7 7 6 6 6 7 7 6 6 8 9 9 8 8 9 10 10 10 9 10 11 13 16 18 18 17 17 18 18 17 18 19 19 20 20 20 20 20 20 20 21 21 23 26 29 29 28 28 29 29 29 29 29 28 26 25 24 23 22 21 20 19 17 12 8 9 11 12 11 9 7 7 7 7 6 4 3 3 2 2 4
7 8 8 8 7 7 6 6 5 6 7 6 6 8 9 7 7 6 7 8 9 9 8 9 10 11 12 16 17 16 15 16 17 17 16 17 19 19 19 18 19 19 19 20 21 21 22 24 26 27 28 29 29 29 30 30 30 30 29 28 27 25 24 23 22 21 20 18 14 10 8 11 13 13 11 10 10 10 9 7 5 5 5 3 4
11 10 10 9 9 8 7 6 5 6 6 5 5 7 8 6 5 5 6 7 8 9 8 8 9 10 11 13 15 15 14 14 15 16 15 16 17 19 18 16 16 18 19 20 21 21 22 23 24 25 26 27 27 28 29 30 30 31 30 29 29 28 26 26 25 24 22 20 18 15 11 8 10 14 15 14 13 12 12 10 8 7 7 6 4
12 10 9 8 7 7 7 6 5 5 5 4 4 5 4 3 4 5 6 6 7 8 7 7 8 10 11 12 14 14 13 12 12 14 14 15 16 18 18 16 14 15 18 19 20 21 22 22 23 24 25 26 26 27 28 28 29 30 30 29 29 29 29 28 27 25 23 22 21 19 17 14 10 9 13 16 16 15 14 13 11 9 9 9 7
11 10 9 8 8 7 6 6 5 5 4 4 3 2 0 2 3 4 6 7 8 8 6 6 7 8 10 12 13 13 12 11 11 12 13 14 15 17 17 16 13 13 15 17 19 20 21 22 23 23 23 24 26 26 26 27 27 28 28 28 28 29 29 28 26 25 24 24 24 22 19 16 13 10 8 12 16 18 17 17 15 12 11 12 11
11 11 10 10 10 9 8 8 7 6 5 5 5 4 3 1 2 3 5 7 8 7 5 5 6 7 9 11 12 12 11 10 9 10 12 14 15 16 17 16 13 12 12 14 17 19 20 21 23 22 22 23 25 25 25 26 26 26 27 27 27 28 28 27 25 25 24 24 24 23 20 17 15 13 11 9 11 15 18 19 18 16 13 13 14
13 12 12 11 11 10 9 8 6 5 5 4 3 2 2 1 1 2 3 4 5 5 5 5 6 6 7 9 11 12 11 9 9 8 10 13 15 15 16 16 14 12 11 12 14 15 17 20 22 22 21 22 24 25 25 25 25 25 25 26 26 26 26 25 24 24 24 23 22 21 20 19 18 16 14 12 10 11 15 18 20 20 17 14 15
14 13 12 12 10 8 6 5 4 5 5 4 2 1 1 0 1 2 3 2 3 4 4 4 5 6 6 7 11 12 11 10 9 8 9 13 15 14 15 16 14 12 11 12 13 13 14 16 19 21 20 21 23 24 24 24 25 25 25 25 25 24 24 23 23 23 23 22 20 20 20 19 18 17 16 14 12 11 11 14 18 21 21 18 15
15 14 13 12 11 9 8 7 6 6 7 6 3 2 3 1 0 4 5 2 2 3 5 4 4 5 6 6 9 12 11 11 10 8 7 11 14 14 14 15 15 13 12 12 13 13 13 14 16 18 20 20 22 23 23 23 24 24 25 25 24 24 23 23 23 23 23 22 20 19 20 20 19 17 17 15 14 13 11 11 14 19 23 22 18
16 15 13 12 12 11 10 10 8 7 8 7 6 4 4 2 3 4 5 2 1 3 4 3 3 4 5 5 8 11 11 11 11 9 8 10 13 14 14 15 15 13 13 13 13 13 13 13 14 17 19 20 21 22 22 23 23 23 23 23 22 23 23 23 22 23 23 21 19 19 20 20 20 19 18 17 16 15 13 10 9 14 21 23 21
Wind_Direction
11 13 12 10 8 8 9 7 7 6 4 4 1 356 357 357 355 357 357 357 357 355 357 0 359 0 359 349 345 347 348 349 351 353 355 356 355 354 353 352 352 351 346 337 330 319 277 236 241 261 283 295 319 337 312 272 219 206 195 188 191 184 171 171 168 163 162 170 178 190 209 185 154 192 217 238 359 56 155 239 1 21 13 4 4
12 8 10 10 7 7 7 5 5 3 359 1 360 356 358 358 357 359 358 358 359 358 1 3 1 3 359 347 344 347 349 351 353 355 357 356 355 356 356 356 357 354 350 343 333 324 248 231 258 259 285 340 1 349 315 285 215 195 193 190 199 188 168 172 173 161 158 167 177 191 200 165 158 197 228 271 5 48 74 38 19 18 6 354 351
13 7 10 9 6 10 8 3 5 2 357 359 359 358 0 359 358 1 360 359 1 1 4 5 4 7 0 347 345 348 350 352 354 356 358 356 356 359 360 360 0 358 359 3 2 18 108 295 313 240 270 25 23 2 324 294 238 198 205 199 195 176 162 169 168 159 160 164 173 190 186 160 160 186 221 281 15 33 53 54 27 1 354 351 347
13 9 11 9 9 12 6 2 5 0 356 360 359 0 3 359 359 3 1 0 3 4 6 7 7 8 1 349 348 351 352 353 354 355 358 359 2 4 2 2 7 8 12 27 43 55 65 51 49 154 91 51 21 15 10 319 349 160 196 190 181 163 154 162 161 156 159 160 169 183 158 150 166 180 195 199 16 29 67 51 341 346 351 348 349
13 11 12 10 11 10 3 3 5 359 359 2 1 3 3 359 1 4 2 3 6 7 8 8 11 10 2 352 349 352 355 355 355 356 359 4 8 8 5 7 14 18 25 36 40 40 42 47 65 82 64 50 19 22 29 14 37 77 132 159 162 155 151 157 156 154 158 155 160 167 125 128 157 173 184 195 228 165 92 349 332 16 13 359 355
14 13 13 10 11 8 3 6 4 360 3 4 3 5 4 2 5 6 5 6 8 10 10 10 12 12 4 352 350 354 357 356 357 360 2 6 9 9 10 12 18 25 36 42 37 33 34 39 58 69 50 39 29 30 30 22 33 50 62 116 141 144 145 154 156 152 152 149 154 155 121 120 139 165 182 178 61 164 290 323 310 323 31 26 10
18 16 14 11 11 8 6 8 5 3 6 4 4 7 4 3 7 7 8 11 11 11 12 11 12 14 8 353 350 356 357 358 3 4 4 7 9 8 11 14 18 25 35 39 38 39 41 42 49 48 36 35 36 35 33 25 29 42 50 76 121 133 135 144 151 148 144 145 149 141 127 137 142 157 176 177 28 97 346 343 321 265 10 12 356
21 17 15 12 11 11 10 9 6 6 7 5 6 7 3 4 9 12 12 14 13 12 13 13 10 15 13 357 351 357 358 1 8 5 2 8 10 10 14 16 17 20 23 25 32 40 43 44 45 39 33 37 36 29 24 15 19 36 42 53 105 134 138 140 144 145 142 145 148 138 134 139 134 152 160 62 39 120 48 9 18 356 350 353 353
22 19 16 12 12 13 12 9 7 8 9 8 8 6 3 4 11 17 17 16 15 13 14 13 7 11 14 2 354 357 360 5 8 3 3 9 9 11 18 19 18 19 18 19 34 51 43 41 42 38 33 32 29 22 14 3 6 22 30 51 94 121 135 137 138 140 139 141 143 143 137 123 129 152 136 66 75 102 39 21 48 31 358 358 15
23 21 17 13 14 15 12 9 10 11 10 9 8 5 4 6 13 20 21 19 18 15 14 15 12 12 11 2 357 359 1 5 7 5 8 11 9 11 19 21 20 20 18 23 54 80 45 36 42 41 33 31 30 25 14 4 0 2 14 42 72 101 128 134 136 139 139 137 137 142 139 127 130 134 107 78 87 60 41 44 56 47 9 339 271
24 22 17 14 15 15 12 12 14 14 11 9 7 5 6 10 16 21 21 18 19 20 18 16 13 11 7 2 360 1 2 3 7 11 14 14 11 12 20 27 24 22 25 35 63 78 42 34 46 43 33 31 28 23 20 18 14 360 2 42 65 101 122 118 120 135 146 143 138 142 142 136 125 108 132 135 103 44 37 40 35 36 16 358 308
24 22 18 16 15 15 16 16 17 16 11 8 8 7 9 13 16 18 19 18 20 25 24 16 9 7 8 6 2 2 3 5 9 16 20 18 16 17 24 33 29 26 34 51 68 60 30 29 43 42 34 26 13 11 25 33 32 25 17 45 69 97 111 88 80 90 119 140 139 131 144 142 113 98 136 129 81 43 48 56 44 6 345 355 6
22 23 21 17 15 18 20 20 19 15 11 11 11 10 12 15 16 18 19 19 21 24 22 16 11 11 10 7 3 1 5 9 11 17 24 23 21 25 31 36 31 29 35 51 69 49 18 21 38 41 36 23 4 9 34 46 45 44 40 48 70 95 115 105 78 71 96 131 135 113 131 144 114 120 138 119 87 76 65 69 62 24 343 316 322
20 24 23 18 17 21 22 20 19 16 13 13 13 13 14 16 17 19 18 20 22 21 19 15 13 12 9 6 2 360 7 14 13 16 25 27 25 31 36 35 31 31 35 43 63 45 13 15 26 32 32 19 4 15 47 56 53 50 44 49 70 92 133 144 128 83 95 118 127 114 121 132 129 144 158 130 96 85 60 48 21 9 5 348 339
21 24 25 20 19 24 24 19 20 19 15 14 15 15 15 16 18 19 19 21 19 15 15 16 14 13 9 4 0 358 8 18 15 14 22 27 27 32 36 35 33 34 37 40 54 49 15 13 19 24 26 19 13 27 54 56 56 55 42 36 50 56 131 160 148 103 92 92 104 109 112 123 133 146 158 124 40 31 29 19 3 354 10 21 30
23 24 27 22 19 24 25 21 22 22 17 15 16 16 15 16 18 20 20 18 12 10 16 19 17 14 6 1 1 3 13 20 18 15 19 24 27 31 34 35 33 34 37 38 42 43 11 9 17 24 22 19 21 39 58 55 60 61 44 29 28 29 66 171 169 135 97 71 84 95 85 88 106 119 131 97 57 60 42 24 22 357 344 359 29
24 25 28 26 21 21 24 26 25 23 19 17 17 15 15 17 18 20 21 16 12 15 20 18 14 10 4 3 6 10 17 22 21 19 19 23 29 32 34 35 31 29 31 32 31 19 358 1 9 20 20 16 19 34 54 57 66 73 64 47 26 20 31 58 331 250 199 41 68 81 59 54 58 73 121 109 67 78 88 56 36 344 330 356 84
26 27 31 31 23 19 25 32 29 23 21 19 15 15 17 17 17 21 22 17 15 19 20 17 15 15 13 13 13 16 22 25 24 24 23 26 32 34 33 33 28 24 26 29 27 5 357 5 7 8 13 15 17 22 31 43 60 74 76 65 44 36 39 35 23 33 308 307 0 13 1 6 21 24 11 9 2 292 146 114 10 349 7 53 88
30 30 34 35 28 20 25 33 28 22 23 20 14 14 17 18 19 22 21 18 18 20 19 18 21 22 21 19 18 22 28 28 27 27 27 30 35 35 31 29 27 25 26 27 27 18 1 12 14 6 6 13 15 16 16 15 29 55 58 52 60 72 59 41 32 37 39 25 353 359 1 352 355 358 349 353 359 49 131 159 284 349 38 52 49
33 34 37 38 33 23 23 30 27 20 22 23 16 12 15 20 24 25 23 21 20 20 20 22 26 28 26 24 24 27 28 28 29 30 30 33 37 37 33 28 26 27 27 24 25 31 26 16 19 16 14 17 16 13 14 15 11 10 33 35 64 100 83 53 41 35 34 36 26 20 19 6 359 0 348 354 16 69 147 229 275 294 35 44 52
36 39 40 38 37 30 25 31 32 22 19 23 20 13 13 20 27 28 26 24 22 21 20 24 30 32 29 28 29 28 25 27 31 33 32 35 38 38 35 31 26 27 28 25 25 32 41 33 29 35 40 33 22 15 16 22 28 28 294 0 61 104 100 84 85 71 21 5 24 35 29 28 42 26 11 39 67 78 235 275 278 257 0 54 67
41 43 43 37 35 36 31 29 32 28 19 20 25 19 14 20 28 30 28 25 24 24 24 25 31 32 29 28 30 28 25 26 29 32 33 35 38 38 35 31 27 26 30 30 30 34 42 45 46 55 54 37 25 22 25 32 39 46 33 333 313 108 106 169 144 112 45 348 12 31 25 45 70 35 18 61 91 81 280 297 301 251 255 20 61
47 44 43 37 33 37 36 27 29 31 21 18 26 25 18 22 29 29 27 26 26 27 27 26 28 29 26 26 26 25 24 24 25 29 31 32 35 37 34 32 32 30 30 33 35 37 42 50 60 64 53 42 40 40 42 48 52 56 61 61 62 56 58 134 155 108 91 72 336 334 344 51 79 38 48 122 178 235 261 292 316 313 259 278 54
54 46 40 40 37 37 41 33 28 30 24 19 26 28 19 21 26 28 29 29 26 26 26 26 27 26 23 23 23 21 20 21 22 25 26 26 28 32 32 32 35 36 33 33 36 38 40 47 59 59 49 53 60 59 61 63 60 56 55 60 73 73 52 48 57 43 47 50 1 346 142 165 163 139 148 179 224 235 259 297 311 308 274 260 70
58 50 39 41 39 33 39 39 29 27 24 19 26 30 20 15 21 26 29 29 26 24 24 24 26 25 22 22 22 19 18 20 20 22 22 22 23 26 28 29 33 36 36 33 32 38 40 42 51 52 46 54 61 63 68 72 64 54 43 34 42 64 55 57 80 67 15 18 15 29 157 176 175 173 193 219 243 262 291 319 347 107 6 4 243
56 51 39 41 40 30 37 46 35 25 22 18 26 33 23 14 18 24 27 27 26 24 23 23 26 26 23 21 20 19 18 19 20 21 20 19 19 20 23 25 27 32 36 34 32 35 34 25 33 43 42 41 39 38 46 54 50 52 50 30 16 25 77 85 74 47 29 47 98 103 132 163 181 226 244 248 270 292 315 11 69 86 65 39 28
57 47 38 48 50 33 34 45 39 29 25 17 22 30 24 14 18 23 26 27 26 24 23 24 25 25 23 19 18 19 18 19 19 20 19 18 16 17 20 21 22 25 29 29 27 25 18 3 4 24 33 29 30 30 32 42 47 54 64 50 27 28 66 56 21 31 49 58 71 85 89 130 279 308 310 283 281 301 340 54 72 73 66 37 11
64 49 39 57 62 41 31 39 34 29 31 12 9 21 24 15 16 21 24 26 25 24 25 26 25 25 23 19 17 19 19 19 19 18 18 18 17 20 22 21 21 22 21 21 21 16 8 352 342 6 40 28 34 44 51 65 68 58 60 62 48 48 56 20 357 27 56 53 48 38 359 332 324 344 2 46 246 314 9 55 62 54 62 40 354
65 52 43 63 68 48 32 37 32 27 31 12 0 13 22 17 15 17 20 23 23 22 23 26 26 26 26 22 20 21 21 21 21 19 20 23 25 27 26 25 26 27 23 22 23 19 13 8 5 25 65 22 357 24 41 59 70 62 56 58 51 55 65 56 33 41 47 35 30 24 355 337 349 17 7 260 238 313 25 91 171 189 197 206 120
73 57 47 72 80 60 35 40 39 31 31 22 7 9 14 14 14 14 15 19 21 18 20 24 25 26 28 28 29 30 27 24 23 23 24 28 32 34 33 29 30 33 30 25 26 29 36 42 40 46 62 56 354 356 14 32 45 52 60 59 39 47 67 76 80 83 56 22 6 8 11 356 355 3 300 264 280 284 262 208 190 176 166 186 174
110 83 59 71 81 71 49 44 46 38 36 35 26 17 12 9 10 11 12 15 18 15 16 20 22 23 27 31 34 36 33 28 26 27 28 29 32 36 36 33 32 35 36 33 33 37 42 45 44 45 50 54 35 7 359 0 12 32 51 58 45 44 54 71 87 80 45 27 11 356 3 18 16 2 325 310 308 301 318 245 181 157 114 147 181
140 129 100 75 69 69 62 53 52 49 43 41 40 36 27 17 11 8 8 13 17 14 12 16 19 20 23 29 35 38 36 32 30 31 32 32 32 33 34 35 36 37 39 39 40 42 44 44 44 42 40 40 36 18 355 344 347 3 21 37 51 49 39 57 92 59 14 28 45 20 345 345 31 21 316 330 265 270 354 38 143 110 58 123 169
139 136 119 93 69 65 68 61 59 60 52 43 40 41 41 36 25 13 9 13 17 14 10 12 15 17 18 25 34 37 37 35 34 35 37 37 36 31 29 32 37 38 39 42 44 45 45 45 44 42 40 36 30 20 1 338 328 331 343 1 28 47 43 64 110 356 345 15 47 38 15 6 11 314 301 339 10 233 327 51 141 352 12 177 179
111 120 120 105 86 78 84 84 86 81 64 48 42 40 38 39 36 25 18 20 21 17 11 9 12 15 18 23 31 34 34 32 33 35 37 38 37 35 32 31 34 37 39 42 45 44 44 44 43 42 41 38 32 26 19 7 342 315 311 322 340 7 31 72 177 305 334 1 21 30 49 53 44 23 344 8 17 346 344 132 180 230 232 229 226
93 95 111 104 94 92 94 91 99 97 77 51 42 45 41 41 42 32 25 29 32 28 18 8 10 17 22 25 31 34 30 27 29 32 35 35 34 34 36 35 34 34 35 38 40 41 42 42 41 40 39 37 34 30 26 22 16 358 325 303 296 307 332 341 239 261 317 2 22 39 60 66 82 120 72 23 348 283 346 40 198 200 205 228 212
98 99 113 106 98 95 91 85 91 93 77 52 45 53 47 45 47 37 27 33 39 37 22 2 8 21 29 30 35 37 30 25 26 29 32 34 33 33 35 36 34 33 33 34 36 37 39 40 40 40 39 36 33 31 28 26 25 20 8 345 304 282 285 298 287 247 260 336 28 81 97 54 77 165 27 44 75 248 319 335 238 211 186 163 145
153 167 152 127 112 96 85 86 92 87 71 51 54 68 59 51 51 43 30 32 38 38 24 1 6 21 30 31 36 39 31 24 27 30 31 33 34 35 35 35 32 32 33 33 34 35 36 37 37 38 39 38 35 32 29 28 28 26 22 16 0 317 284 282 290 283 263 281 351 317 252 341 0 308 347 61 95 119 345 328 259 256 240 181 157
158 157 153 141 130 117 102 96 94 88 76 57 57 72 69 60 56 48 37 35 37 37 28 8 7 19 26 27 34 39 31 23 28 31 29 30 32 34 36 33 29 29 30 31 32 34 35 35 34 35 36 36 35 34 32 30 29 29 28 27 23 9 326 278 273 279 274 264 263 253 251 275 316 286 306 85 116 120 40 41 315 315 314 205 176
155 149 146 143 140 137 128 116 102 97 95 81 66 71 71 65 59 53 45 43 41 37 29 14 11 20 24 23 30 37 31 25 27 28 27 28 30 32 35 34 29 27 27 26 28 32 34 32 31 32 33 31 31 33 33 30 29 29 30 30 30 26 15 341 287 276 272 266 262 249 243 256 278 245 145 140 169 188 36 59 83 340 338 215 177
159 154 149 142 139 137 130 122 114 109 106 98 85 79 72 64 59 52 48 50 47 39 30 17 13 19 22 22 28 34 31 26 28 27 25 26 27 29 32 34 30 28 27 24 23 27 31 31 31 32 31 28 28 30 31 29 28 28 29 31 33 32 29 22 4 327 287 271 269 262 246 247 251 218 144 146 176 200 17 60 89 30 343 231 175
162 154 152 149 144 134 121 117 118 114 108 104 98 88 75 64 58 48 44 51 53 41 30 20 12 11 14 20 30 34 28 26 29 28 25 26 27 27 30 33 30 28 28 26 23 23 26 29 31 32 30 28 27 27 27 27 26 26 27 30 32 32 32 30 25 16 358 310 280 270 259 251 246 232 202 176 175 187 177 79 84 93 55 260 213
168 156 154 150 146 140 132 128 126 116 105 101 98 89 75 63 56 45 36 43 51 44 27 21 18 9 4 14 28 33 26 23 27 29 25 24 26 27 29 31 30 27 27 28 29 27 25 26 29 31 30 29 29 27 25 24 23 23 23 25 27 28 29 30 28 25 21 8 333 294 271 257 252 244 226 205 194 192 190 172 135 128 138 214 225
172 168 166 159 156 156 151 144 140 128 115 106 98 88 74 58 50 48 38 37 49 48 27 15 20 16 4 8 22 31 28 21 23 26 25 21 22 26 29 29 27 25 25 28 29 29 29 28 28 28 29 29 29 28 26 24 22 20 19 19 20 22 24 26 25 24 21 17 11 353 310 273 259 254 244 225 210 204 201 196 187 171 160 169 211
185 184 181 174 168 165 158 153 156 148 125 100 75 68 62 44 30 41 42 38 46 50 33 10 10 15 10 8 16 26 28 21 18 21 23 19 18 23 29 30 24 19 20 24 26 26 28 29 27 26 27 28 29 28 28 26 22 19 17 16 15 16 19 21 20 19 16 15 15 13 3 329 281 262 255 244 229 215 207 203 201 197 190 182 190
190 183 176 172 168 168 172 172 163 142 116 88 56 44 39 14 2 19 29 36 47 51 38 14 4 5 8 10 13 20 26 25 17 14 16 16 15 17 25 32 26 14 12 16 19 22 24 25 24 25 25 26 27 27 27 26 24 20 17 14 13 13 15 16 15 14 13 13 12 12 10 2 337 291 266 255 245 234 221 213 210 210 208 200 189
185 177 172 176 179 179 184 181 157 133 127 136 140 139 258 313 341 357 4 20 40 47 37 18 8 2 1 5 10 14 20 24 20 10 7 10 11 12 18 28 30 18 10 8 9 13 18 19 19 22 23 22 23 24 24 23 24 21 17 16 15 13 12 11 10 11 11 10 8 6 4 -0 354 339 303 269 255 245 236 226 221 217 214 209 203
187 184 179 184 190 189 190 191 180 167 173 187 184 186 212 266 356 4 356 5 22 31 24 13 10 6 359 357 2 8 13 18 21 10 358 0 7 9 12 21 28 23 15 8 4 5 9 10 12 17 21 21 20 20 19 20 21 20 17 16 16 14 10 7 8 10 10 7 4 1 -0 360 359 355 343 314 276 255 244 235 228 222 217 213 209
192 190 186 192 200 200 202 204 193 174 182 209 229 228 220 203 45 12 352 359 6 9 10 6 3 5 1 351 350 358 4 11 19 12 353 352 1 6 7 14 22 23 16 12 8 4 2 2 3 8 15 19 18 16 14 14 16 16 16 15 16 14 9 4 6 10 8 3 360 359 0 2 1 356 351 342 319 282 256 241 231 224 220 214 210
193 190 192 198 196 192 199 204 186 176 194 210 236 286 275 58 14 295 307 2 6 343 350 1 356 358 1 346 339 346 355 2 12 14 352 345 355 5 6 8 16 20 13 9 9 6 3 1 359 359 4 11 13 11 10 10 11 12 12 12 13 13 9 5 6 9 7 0 358 1 4 4 2 357 353 350 343 322 285 254 237 227 222 217 211
191 189 198 199 184 175 190 198 185 189 206 198 174 220 257 218 162 284 302 0 31 326 331 354 354 349 357 348 336 338 345 352 1 9 353 341 349 2 4 3 9 16 11 6 7 7 4 3 358 353 353 359 4 5 6 7 8 8 9 7 7 9 9 6 7 9 5 359 357 2 7 6 3 359 357 354 351 343 322 283 250 233 225 221 216
192 188 194 197 187 186 199 201 191 199 215 202 175 192 228 192 174 253 286 299 256 294 319 346 343 331 337 338 328 329 335 344 352 357 350 340 347 358 1 359 4 10 7 1 3 5 4 3 358 348 344 348 355 360 3 5 5 6 6 3 3 7 8 7 8 9 4 358 358 4 7 6 5 4 3 360 356 354 346 323 277 244 232 226 223